Dauntless Aviation
Greetings, Guest! To participate, [sign up for a free account] or [log in]
Airports Europe France
LFIY

Saint Jean d'Angely

FRANCE

Airport Info
Edit

Location

Latitude / Longitude: 45°57'59"N / 0°31'31"W
  45°57.984'N / 0°31.518'W
  45.9664 / -0.5253

Runway Information

Runway 10 /28

Dimensions: 2789 x 164 ft.
Surface: U
 
Runway 10
Runway 28
Latitude: 45.966636 45.965728
Longitude: -0.528086 -0.518369
Elevation: 243 ft. 243 ft.
Runway true heading: 95.7 275.7
 

Instrument Procedures

IAPs (Instrument Approach Procedures)

  Visual Approch Chart
Satellite photo at:
Airport distance calculator
From:
Weather Reports

METAR

LFBG
20.0nm SE
LFBG 220730Z AUTO 09003KT 3700 UP BR BKN023 M00/M01 Q1033
LFBH
27.2nm W
LFBH 220730Z AUTO 17006KT 9999 OVC024 09/06 Q1033
LFBU
34.5nm E
LFBU 220730Z AUTO 00000KT 9999 OVC020 00/M01 Q1033

TAF

LFBG
20.0nm SE
TAF AMD LFBG 220520Z 2206/2306 VRB03KT 5000 SCT023 BECMG 2208/2210 CAVOK TEMPO 2300/2306 3000 MIFG
LFBH
27.2nm W
TAF LFBH 220500Z 2206/2306 16005KT 9999 BKN025 TEMPO 2206/2208 5000 MIFG BECMG 2208/2210 CAVOK TEMPO 2222/2306 3000 BR
LFBU
34.5nm E
TAF LFBU 220500Z 2206/2306 VRB03KT CAVOK TEMPO 2206/2208 3000 BR TEMPO 2222/2306 3000 MIFG
Safelog

 

Dauntless Aviation

© 2007-2014 Dauntless Aviation, all rights reserved
Information provided via PilotNav comes from a variety of official and unofficial data sources. As errors are possible, do not use PilotNav for primary flight planning purposes. Verify any information that you receive via PilotNav with current and canonical charts and other official documents. The material in this database is subject to database copyrights held by Dauntless Aviation and may not be copied without the express permission of Dauntless Aviation - licenses for use of part of all of this data are available for purchase; enquire via the Dauntless Aviation helpdesk. A number of mechanisms and markers exist in the database to protect against and identify infringement / copyright. Automated queries against this website are stictly prohibited, and all activity is logged and analyzed.